| time (UTC) | temp C | wind direction | speed KPH | gust KPH | rain 1hr cm | rain 24hr cm | rain mn cm | humidity % | barometer mb |
| 20260905184523 | 33 | 277 | 6.4 | 12.9 | 0.00 | 0.00 | 0.00 | 67 | 1007.9 |
| 20260905184025 | 33 | 251 | 4.8 | 14.5 | 0.00 | 0.00 | 0.00 | 68 | 1007.9 |
| 20260905183524 | 33 | 229 | 4.8 | 14.5 | 0.00 | 0.00 | 0.00 | 66 | 1008.0 |
| 20260905183012 | 33 | 220 | 3.2 | 16.1 | 0.00 | 0.00 | 0.00 | 67 | 1008.0 |
| 20260905182507 | 33 | 250 | 4.8 | 12.9 | 0.00 | 0.00 | 0.00 | 67 | 1008.2 |
| 20260905182013 | 33 | 259 | 4.8 | 16.1 | 0.00 | 0.00 | 0.00 | 68 | 1008.1 |
| 20260905181514 | 33 | 215 | 6.4 | 16.1 | 0.00 | 0.00 | 0.00 | 68 | 1008.1 |
| 20260905181015 | 33 | 226 | 8.0 | 11.3 | 0.00 | 0.00 | 0.00 | 68 | 1008.0 |
| 20260905180516 | 33 | 187 | 4.8 | 17.7 | 0.00 | 0.00 | 0.00 | 68 | 1008.0 |
| 20260905180007 | 33 | 182 | 9.7 | 17.7 | 0.00 | 0.00 | 0.00 | 67 | 1008.0 |
| 20260905175505 | 33 | 252 | 9.7 | 14.5 | 0.00 | 0.00 | 0.00 | 67 | 1008.1 |
| 20260905175009 | 32 | 189 | 8.0 | 16.1 | 0.00 | 0.00 | 0.00 | 67 | 1008.1 |
| 20260905174521 | 32 | 199 | 8.0 | 16.1 | 0.00 | 0.00 | 0.00 | 68 | 1008.2 |
| 20260905174013 | 32 | 242 | 8.0 | 16.1 | 0.00 | 0.00 | 0.00 | 68 | 1008.3 |
| 20260905173512 | 32 | 225 | 9.7 | 16.1 | 0.00 | 0.00 | 0.00 | 68 | 1008.3 |
| 20260905173025 | 32 | 200 | 8.0 | 14.5 | 0.00 | 0.00 | 0.00 | 68 | 1008.3 |
| 20260905172521 | 33 | 180 | 6.4 | 14.5 | 0.00 | 0.00 | 0.00 | 68 | 1008.4 |
| 20260905172024 | 33 | 260 | 4.8 | 14.5 | 0.00 | 0.00 | 0.00 | 68 | 1008.5 |
| 20260905171522 | 33 | 220 | 8.0 | 14.5 | 0.00 | 0.00 | 0.00 | 67 | 1008.5 |
| 20260905171011 | 32 | 268 | 4.8 | 11.3 | 0.00 | 0.00 | 0.00 | 69 | 1008.5 |
| 20260905170506 | 32 | 211 | 3.2 | 11.3 | 0.00 | 0.00 | 0.00 | 71 | 1008.5 |
| 20260905170013 | 32 | 200 | 8.0 | 11.3 | 0.00 | 0.00 | 0.00 | 71 | 1008.5 |
| 20260905165511 | 32 | 223 | 8.0 | 14.5 | 0.00 | 0.00 | 0.00 | 71 | 1008.6 |
| 20260905165019 | 32 | 190 | 4.8 | 14.5 | 0.00 | 0.00 | 0.00 | 72 | 1008.5 |
| 20260905164519 | 31 | 211 | 8.0 | 14.5 | 0.00 | 0.00 | 0.00 | 72 | 1008.5 |
| 20260905164022 | 31 | 221 | 4.8 | 12.9 | 0.00 | 0.00 | 0.00 | 73 | 1008.5 |
| 20260905163520 | 31 | 246 | 4.8 | 12.9 | 0.00 | 0.00 | 0.00 | 73 | 1008.6 |
| 20260905163019 | 31 | 219 | 3.2 | 16.1 | 0.00 | 0.00 | 0.00 | 73 | 1008.6 |
| 20260905162516 | 31 | 222 | 6.4 | 19.3 | 0.00 | 0.00 | 0.00 | 73 | 1008.6 |
| 20260905162024 | 31 | 216 | 9.7 | 19.3 | 0.00 | 0.00 | 0.00 | 73 | 1008.6 |
| 20260905161522 | 31 | 217 | 4.8 | 16.1 | 0.00 | 0.00 | 0.00 | 72 | 1008.6 |
| 20260905161008 | 31 | 229 | 8.0 | 16.1 | 0.00 | 0.00 | 0.00 | 72 | 1008.6 |
| 20260905160506 | 31 | 212 | 4.8 | 9.7 | 0.00 | 0.00 | 0.00 | 72 | 1008.6 |
| 20260905160022 | 31 | 240 | 3.2 | 9.7 | 0.00 | 0.00 | 0.00 | 73 | 1008.5 |
| 20260905155511 | 31 | 237 | 4.8 | 11.3 | 0.00 | 0.00 | 0.00 | 72 | 1008.5 |
| 20260905155019 | 31 | 195 | 6.4 | 11.3 | 0.00 | 0.00 | 0.00 | 72 | 1008.4 |
| 20260905154518 | 31 | 207 | 8.0 | 11.3 | 0.00 | 0.00 | 0.00 | 70 | 1008.4 |
| 20260905154020 | 31 | 186 | 4.8 | 14.5 | 0.00 | 0.00 | 0.00 | 70 | 1008.4 |
| 20260905153520 | 31 | 198 | 8.0 | 16.1 | 0.00 | 0.00 | 0.00 | 70 | 1008.4 |
| 20260905153025 | 31 | 173 | 8.0 | 12.9 | 0.00 | 0.00 | 0.00 | 70 | 1008.4 |
| 20260905152523 | 31 | 237 | 6.4 | 12.9 | 0.00 | 0.00 | 0.00 | 69 | 1008.5 |
| 20260905152012 | 31 | 183 | 6.4 | 12.9 | 0.00 | 0.00 | 0.00 | 70 | 1008.4 |
| 20260905151508 | 31 | 196 | 6.4 | 14.5 | 0.00 | 0.00 | 0.00 | 71 | 1008.5 |
| 20260905151024 | 31 | 209 | 6.4 | 11.3 | 0.00 | 0.00 | 0.00 | 69 | 1008.5 |
| 20260905150512 | 31 | 162 | 6.4 | 9.7 | 0.00 | 0.00 | 0.00 | 67 | 1008.5 |
| 20260905150026 | 31 | 235 | 1.6 | 4.8 | 0.00 | 0.00 | 0.00 | 66 | 1008.4 |
| 20260905145519 | 31 | 308 | 1.6 | 4.8 | 0.00 | 0.00 | 0.00 | 66 | 1008.4 |
| 20260905145021 | 30 | 298 | 0.0 | 4.8 | 0.00 | 0.00 | 0.00 | 67 | 1008.3 |
| 20260905144538 | 30 | 298 | 3.2 | 4.8 | 0.00 | 0.00 | 0.00 | 67 | 1008.3 |
| 20260905144023 | 30 | 184 | 0.0 | 4.8 | 0.00 | 0.00 | 0.00 | 69 | 1008.3 |
| 20260905143521 | 29 | 186 | 1.6 | 6.4 | 0.00 | 0.00 | 0.00 | 70 | 1008.3 |
| 20260905143015 | 29 | 238 | 3.2 | 6.4 | 0.00 | 0.00 | 0.00 | 70 | 1008.3 |
| 20260905142506 | 29 | 306 | 0.0 | 6.4 | 0.00 | 0.00 | 0.00 | 70 | 1008.2 |
| 20260905142012 | 29 | 242 | 0.0 | 4.8 | 0.00 | 0.00 | 0.00 | 71 | 1008.1 |
| 20260905141510 | 28 | 240 | 1.6 | 4.8 | 0.00 | 0.00 | 0.00 | 72 | 1008.1 |
| 20260905141018 | 28 | 50 | 0.0 | 3.2 | 0.00 | 0.00 | 0.00 | 72 | 1008.0 |
| 20260905140517 | 28 | 55 | 0.0 | 3.2 | 0.00 | 0.00 | 0.00 | 73 | 1008.0 |
| 20260905140019 | 28 | 55 | 0.0 | 3.2 | 0.00 | 0.00 | 0.00 | 74 | 1007.9 |
| 20260905135518 | 28 | 55 | 0.0 | 3.2 | 0.00 | 0.00 | 0.00 | 74 | 1008.0 |
| 20260905135018 | 28 | 55 | 0.0 | 3.2 | 0.00 | 0.00 | 0.00 | 75 | 1008.0 |
| 20260905134519 | 28 | 55 | 0.0 | 1.6 | 0.00 | 0.00 | 0.00 | 76 | 1007.9 |
| 20260905134025 | 28 | 55 | 0.0 | 1.6 | 0.00 | 0.00 | 0.00 | 76 | 1007.9 |
| 20260905133522 | 28 | 55 | 0.0 | 3.2 | 0.00 | 0.00 | 0.00 | 76 | 1007.9 |
| 20260905133009 | 28 | 55 | 0.0 | 3.2 | 0.00 | 0.00 | 0.00 | 75 | 1007.8 |
| 20260905132507 | 28 | 55 | 0.0 | 3.2 | 0.00 | 0.00 | 0.00 | 76 | 1007.9 |
| 20260905132013 | 28 | 347 | 0.0 | 6.4 | 0.00 | 0.00 | 0.00 | 76 | 1007.9 |
| 20260905131510 | 28 | 348 | 3.2 | 6.4 | 0.00 | 0.00 | 0.00 | 76 | 1007.9 |
| 20260905131018 | 28 | 252 | 0.0 | 4.8 | 0.00 | 0.00 | 0.00 | 77 | 1007.9 |
| 20260905130519 | 28 | 252 | 0.0 | 4.8 | 0.00 | 0.00 | 0.00 | 76 | 1007.8 |
| 20260905130026 | 28 | 245 | 0.0 | 1.6 | 0.00 | 0.00 | 0.00 | 76 | 1007.8 |
| 20260905125522 | 28 | 246 | 0.0 | 3.2 | 0.00 | 0.00 | 0.00 | 76 | 1007.7 |
| 20260905125021 | 28 | 246 | 0.0 | 1.6 | 0.00 | 0.00 | 0.00 | 75 | 1007.7 |
| 20260905124521 | 28 | 245 | 0.0 | 1.6 | 0.00 | 0.00 | 0.00 | 75 | 1007.7 |
| 20260905124008 | 28 | 245 | 0.0 | 1.6 | 0.00 | 0.00 | 0.00 | 75 | 1007.8 |
| 20260905123507 | 28 | 245 | 0.0 | 1.6 | 0.00 | 0.00 | 0.00 | 75 | 1007.8 |
| 20260905123012 | 28 | 245 | 0.0 | 3.2 | 0.00 | 0.00 | 0.00 | 75 | 1007.7 |
| 20260905122512 | 28 | 245 | 1.6 | 3.2 | 0.00 | 0.00 | 0.00 | 74 | 1007.6 |
| 20260905122014 | 28 | 347 | 0.0 | 1.6 | 0.00 | 0.00 | 0.00 | 73 | 1007.7 |
| 20260905121514 | 28 | 347 | 0.0 | 3.2 | 0.00 | 0.00 | 0.00 | 73 | 1007.7 |
| 20260905121023 | 28 | 347 | 0.0 | 3.2 | 0.00 | 0.00 | 0.00 | 73 | 1007.7 |
| 20260905120522 | 28 | 347 | 0.0 | 4.8 | 0.00 | 0.00 | 0.00 | 74 | 1007.6 |
| 20260905120024 | 28 | 347 | 1.6 | 6.4 | 0.00 | 0.00 | 0.00 | 74 | 1007.6 |
| 20260905115524 | 28 | 346 | 3.2 | 6.4 | 0.00 | 0.00 | 0.00 | 74 | 1007.6 |
| 20260905115019 | 28 | 347 | 3.2 | 6.4 | 0.00 | 0.00 | 0.00 | 74 | 1007.6 |
| 20260905114517 | 28 | 38 | 0.0 | 1.6 | 0.00 | 0.00 | 0.00 | 74 | 1007.6 |
| 20260905114022 | 28 | 38 | 0.0 | 1.6 | 0.00 | 0.00 | 0.00 | 74 | 1007.6 |
| 20260905113521 | 28 | 38 | 0.0 | 1.6 | 0.00 | 0.00 | 0.00 | 74 | 1007.8 |
| 20260905113029 | 28 | 38 | 0.0 | 3.2 | 0.00 | 0.00 | 0.00 | 74 | 1007.8 |
| 20260905112530 | 28 | 38 | 0.0 | 3.2 | 0.00 | 0.00 | 0.00 | 74 | 1007.8 |
| 20260905112008 | 28 | 38 | 0.0 | 6.4 | 0.00 | 0.00 | 0.00 | 74 | 1007.9 |
| 20260905111505 | 28 | 42 | 1.6 | 6.4 | 0.00 | 0.00 | 0.00 | 75 | 1008.0 |
| 20260905111009 | 28 | 63 | 1.6 | 4.8 | 0.00 | 0.00 | 0.00 | 75 | 1008.0 |
| 20260905110508 | 28 | 355 | 1.6 | 8.0 | 0.00 | 0.00 | 0.00 | 74 | 1007.9 |
| 20260905110019 | 28 | 350 | 3.2 | 6.4 | 0.00 | 0.00 | 0.00 | 74 | 1008.0 |
| 20260905105519 | 28 | 351 | 1.6 | 6.4 | 0.00 | 0.00 | 0.00 | 75 | 1008.0 |
| 20260905105021 | 28 | 307 | 3.2 | 6.4 | 0.00 | 0.00 | 0.00 | 76 | 1008.0 |
| 20260905104521 | 28 | 329 | 1.6 | 6.4 | 0.00 | 0.00 | 0.00 | 76 | 1007.9 |
| 20260905104005 | 28 | 325 | 3.2 | 6.4 | 0.00 | 0.00 | 0.00 | 77 | 1007.9 |
| 20260905103505 | 28 | 42 | 0.0 | 1.6 | 0.00 | 0.00 | 0.00 | 78 | 1007.8 |
| 20260905103034 | 28 | 42 | 0.0 | 1.6 | 0.00 | 0.00 | 0.00 | 78 | 1007.8 |
| 20260905102532 | 28 | 42 | 0.0 | 1.6 | 0.00 | 0.00 | 0.00 | 78 | 1007.9 |
| 20260905102022 | 28 | 42 | 0.0 | 0.0 | 0.00 | 0.00 | 0.00 | 77 | 1007.9 |
| 20260905101522 | 28 | 42 | 0.0 | 0.0 | 0.00 | 0.00 | 0.00 | 77 | 1007.9 |
| 20260905101005 | 28 | 42 | 0.0 | 0.0 | 0.00 | 0.00 | 0.00 | 76 | 1007.9 |
| 20260905100506 | 28 | 42 | 0.0 | 1.6 | 0.00 | 0.00 | 0.00 | 77 | 1007.8 |
| 20260905100012 | 28 | 42 | 0.0 | 3.2 | 0.00 | 0.00 | 0.00 | 77 | 1007.8 |
| 20260905095515 | 28 | 42 | 0.0 | 3.2 | 0.00 | 0.00 | 0.00 | 77 | 1007.8 |
| 20260905095020 | 28 | 42 | 0.0 | 3.2 | 0.00 | 0.00 | 0.00 | 77 | 1007.9 |
| 20260905094520 | 28 | 42 | 0.0 | 3.2 | 0.00 | 0.00 | 0.00 | 77 | 1008.0 |
| 20260905094003 | 28 | 42 | 0.0 | 1.6 | 0.00 | 0.00 | 0.00 | 77 | 1007.9 |
| 20260905093503 | 28 | 42 | 0.0 | 1.6 | 0.00 | 0.00 | 0.00 | 77 | 1008.0 |
| 20260905093007 | 28 | 42 | 0.0 | 3.2 | 0.00 | 0.00 | 0.00 | 77 | 1008.0 |
| 20260905092507 | 28 | 42 | 0.0 | 3.2 | 0.00 | 0.00 | 0.00 | 77 | 1008.1 |
| 20260905092017 | 28 | 42 | 0.0 | 3.2 | 0.00 | 0.00 | 0.00 | 77 | 1008.3 |
| 20260905091515 | 28 | 42 | 0.0 | 1.6 | 0.00 | 0.00 | 0.00 | 77 | 1008.2 |
| 20260905091016 | 29 | 42 | 0.0 | 3.2 | 0.00 | 0.00 | 0.00 | 77 | 1008.3 |
| 20260905090517 | 28 | 42 | 0.0 | 3.2 | 0.00 | 0.00 | 0.00 | 77 | 1008.2 |
| 20260905090022 | 28 | 42 | 1.6 | 3.2 | 0.00 | 0.00 | 0.00 | 76 | 1008.2 |
| 20260905085522 | 28 | 40 | 0.0 | 3.2 | 0.00 | 0.00 | 0.00 | 76 | 1008.1 |
| 20260905085004 | 28 | 35 | 0.0 | 0.0 | 0.00 | 0.00 | 0.00 | 75 | 1008.0 |
| 20260905084503 | 28 | 35 | 0.0 | 3.2 | 0.00 | 0.00 | 0.00 | 75 | 1007.9 |
| 20260905084007 | 28 | 35 | 0.0 | 3.2 | 0.00 | 0.00 | 0.00 | 75 | 1007.9 |
| 20260905083507 | 28 | 35 | 0.0 | 1.6 | 0.00 | 0.00 | 0.00 | 75 | 1008.0 |
| 20260905083042 | 28 | 35 | 0.0 | 1.6 | 0.00 | 0.00 | 0.00 | 75 | 1007.9 |
| 20260905082550 | 28 | 35 | 0.0 | 1.6 | 0.00 | 0.00 | 0.00 | 76 | 1008.0 |
| 20260905082020 | 28 | 35 | 0.0 | 3.2 | 0.00 | 0.00 | 0.00 | 76 | 1007.9 |
| 20260905081520 | 28 | 35 | 0.0 | 4.8 | 0.00 | 0.00 | 0.00 | 76 | 1008.0 |
| 20260905081021 | 28 | 35 | 1.6 | 4.8 | 0.00 | 0.00 | 0.00 | 77 | 1008.0 |
| 20260905080520 | 29 | 110 | 0.0 | 3.2 | 0.00 | 0.00 | 0.00 | 79 | 1008.1 |
| 20260905080007 | 29 | 110 | 0.0 | 3.2 | 0.00 | 0.00 | 0.00 | 78 | 1008.1 |
| 20260905075507 | 29 | 110 | 0.0 | 3.2 | 0.00 | 0.00 | 0.00 | 78 | 1008.1 |
| 20260905075011 | 29 | 110 | 0.0 | 3.2 | 0.00 | 0.00 | 0.00 | 78 | 1008.1 |
| 20260905074516 | 29 | 110 | 0.0 | 0.0 | 0.00 | 0.00 | 0.00 | 78 | 1008.2 |
| 20260905074019 | 29 | 110 | 0.0 | 0.0 | 0.00 | 0.00 | 0.00 | 78 | 1008.3 |
| 20260905073517 | 29 | 110 | 0.0 | 0.0 | 0.00 | 0.00 | 0.00 | 78 | 1008.3 |
| 20260905073032 | 29 | 110 | 0.0 | 0.0 | 0.00 | 0.00 | 0.00 | 78 | 1008.1 |
| 20260905072519 | 29 | 110 | 0.0 | 0.0 | 0.00 | 0.00 | 0.00 | 78 | 1008.1 |
| 20260905072003 | 29 | 110 | 0.0 | 0.0 | 0.00 | 0.00 | 0.00 | 79 | 1008.0 |
| 20260905071504 | 29 | 110 | 0.0 | 0.0 | 0.00 | 0.00 | 0.00 | 79 | 1007.9 |
| 20260905071012 | 30 | 110 | 0.0 | 3.2 | 0.00 | 0.00 | 0.00 | 79 | 1007.9 |
| 20260905070511 | 30 | 110 | 0.0 | 4.8 | 0.00 | 0.00 | 0.00 | 79 | 1007.9 |
| 20260905070017 | 30 | 109 | 1.6 | 4.8 | 0.00 | 0.00 | 0.00 | 79 | 1008.0 |
| 20260905065517 | 30 | 110 | 0.0 | 4.8 | 0.00 | 0.00 | 0.00 | 79 | 1008.1 |
| 20260905065022 | 30 | 110 | 1.6 | 4.8 | 0.00 | 0.00 | 0.00 | 79 | 1008.0 |
| 20260905064517 | 30 | 69 | 0.0 | 0.0 | 0.00 | 0.00 | 0.00 | 78 | 1008.1 |
| 20260905064022 | 30 | 69 | 0.0 | 1.6 | 0.00 | 0.00 | 0.00 | 78 | 1008.2 |
| 20260905063521 | 30 | 69 | 0.0 | 3.2 | 0.00 | 0.00 | 0.00 | 78 | 1008.3 |
| 20260905063007 | 30 | 69 | 0.0 | 3.2 | 0.00 | 0.00 | 0.00 | 78 | 1008.4 |
| 20260905062510 | 30 | 69 | 0.0 | 3.2 | 0.00 | 0.00 | 0.00 | 78 | 1008.3 |
| 20260905062009 | 30 | 69 | 0.0 | 3.2 | 0.00 | 0.00 | 0.00 | 78 | 1008.2 |
| 20260905061509 | 30 | 69 | 0.0 | 3.2 | 0.00 | 0.00 | 0.00 | 78 | 1008.2 |
| 20260905061019 | 30 | 70 | 0.0 | 3.2 | 0.00 | 0.00 | 0.00 | 78 | 1008.2 |
| 20260905060517 | 30 | 70 | 0.0 | 3.2 | 0.00 | 0.00 | 0.00 | 78 | 1008.3 |
| 20260905060022 | 30 | 70 | 0.0 | 3.2 | 0.00 | 0.00 | 0.00 | 78 | 1008.3 |
| 20260905055522 | 30 | 70 | 0.0 | 3.2 | 0.00 | 0.00 | 0.00 | 77 | 1008.2 |
| 20260905055025 | 30 | 69 | 0.0 | 1.6 | 0.00 | 0.00 | 0.00 | 76 | 1008.2 |
| 20260905054525 | 30 | 69 | 0.0 | 3.2 | 0.00 | 0.00 | 0.00 | 76 | 1008.3 |
| 20260905054009 | 30 | 69 | 0.0 | 3.2 | 0.00 | 0.00 | 0.00 | 76 | 1008.4 |
| 20260905053507 | 30 | 69 | 0.0 | 3.2 | 0.00 | 0.00 | 0.00 | 76 | 1008.5 |
| 20260905053011 | 30 | 69 | 0.0 | 6.4 | 0.00 | 0.00 | 0.00 | 76 | 1008.5 |
| 20260905052510 | 30 | 69 | 1.6 | 6.4 | 0.00 | 0.00 | 0.00 | 77 | 1008.7 |
| 20260905052014 | 30 | 68 | 0.0 | 3.2 | 0.00 | 0.00 | 0.00 | 77 | 1008.8 |
| 20260905051513 | 30 | 68 | 0.0 | 3.2 | 0.00 | 0.00 | 0.00 | 78 | 1008.8 |
| 20260905051018 | 30 | 68 | 0.0 | 3.2 | 0.00 | 0.00 | 0.00 | 78 | 1008.8 |
| 20260905050521 | 30 | 68 | 0.0 | 3.2 | 0.00 | 0.00 | 0.00 | 78 | 1008.9 |
| 20260905050004 | 30 | 68 | 0.0 | 8.0 | 0.00 | 0.00 | 0.00 | 78 | 1008.9 |
| 20260905045504 | 30 | 65 | 1.6 | 8.0 | 0.00 | 0.00 | 0.00 | 78 | 1008.9 |
| 20260905045007 | 30 | 148 | 0.0 | 4.8 | 0.00 | 0.00 | 0.00 | 78 | 1008.9 |
| 20260905044507 | 31 | 159 | 0.0 | 3.2 | 0.00 | 0.00 | 0.00 | 78 | 1008.9 |
| 20260905044010 | 31 | 159 | 0.0 | 3.2 | 0.00 | 0.00 | 0.00 | 78 | 1008.9 |
| 20260905043513 | 31 | 159 | 0.0 | 4.8 | 0.00 | 0.00 | 0.00 | 78 | 1008.9 |
| 20260905043018 | 31 | 159 | 0.0 | 8.0 | 0.00 | 0.00 | 0.00 | 78 | 1008.8 |
| 20260905042517 | 31 | 154 | 0.0 | 6.4 | 0.00 | 0.00 | 0.00 | 78 | 1008.9 |
| 20260905042021 | 31 | 153 | 1.6 | 8.0 | 0.00 | 0.00 | 0.00 | 78 | 1008.9 |
| 20260905041521 | 31 | 153 | 1.6 | 8.0 | 0.00 | 0.00 | 0.00 | 78 | 1008.8 |
| 20260905041010 | 31 | 148 | 3.2 | 8.0 | 0.00 | 0.00 | 0.00 | 77 | 1008.9 |
| 20260905040510 | 31 | 160 | 4.8 | 8.0 | 0.00 | 0.00 | 0.00 | 77 | 1008.8 |
| 20260905040022 | 31 | 140 | 1.6 | 8.0 | 0.00 | 0.00 | 0.00 | 77 | 1008.8 |
| 20260905035515 | 31 | 140 | 1.6 | 8.0 | 0.00 | 0.00 | 0.00 | 77 | 1008.7 |
| 20260905035017 | 31 | 138 | 0.0 | 6.4 | 0.00 | 0.00 | 0.00 | 77 | 1008.7 |
| 20260905034521 | 31 | 136 | 1.6 | 11.3 | 0.00 | 0.00 | 0.00 | 77 | 1008.7 |
| 20260905034021 | 31 | 150 | 1.6 | 11.3 | 0.00 | 0.00 | 0.00 | 77 | 1008.8 |
| 20260905033521 | 31 | 161 | 4.8 | 8.0 | 0.00 | 0.00 | 0.00 | 77 | 1008.7 |
| 20260905033017 | 31 | 192 | 4.8 | 9.7 | 0.00 | 0.00 | 0.00 | 77 | 1008.7 |
| 20260905032505 | 31 | 174 | 6.4 | 9.7 | 0.00 | 0.00 | 0.00 | 77 | 1008.6 |
| 20260905032010 | 31 | 196 | 4.8 | 9.7 | 0.00 | 0.00 | 0.00 | 77 | 1008.5 |
| 20260905031517 | 31 | 207 | 4.8 | 9.7 | 0.00 | 0.00 | 0.00 | 77 | 1008.5 |
| 20260905031020 | 31 | 178 | 4.8 | 8.0 | 0.00 | 0.00 | 0.00 | 77 | 1008.4 |
| 20260905030521 | 31 | 150 | 3.2 | 8.0 | 0.00 | 0.00 | 0.00 | 77 | 1008.4 |
| 20260905030006 | 31 | 190 | 3.2 | 11.3 | 0.00 | 0.00 | 0.00 | 77 | 1008.2 |
| 20260905025508 | 31 | 159 | 4.8 | 11.3 | 0.00 | 0.00 | 0.00 | 77 | 1008.2 |
| 20260905025009 | 31 | 180 | 4.8 | 11.3 | 0.00 | 0.00 | 0.00 | 77 | 1008.2 |
| 20260905024608 | 31 | 179 | 6.4 | 11.3 | 0.00 | 0.00 | 0.00 | 77 | 1008.1 |
| 20260905024020 | 31 | 190 | 4.8 | 16.1 | 0.00 | 0.00 | 0.00 | 77 | 1008.0 |
| 20260905023517 | 31 | 178 | 8.0 | 14.5 | 0.00 | 0.00 | 0.00 | 77 | 1008.0 |
| 20260905023037 | 31 | 196 | 6.4 | 16.1 | 0.00 | 0.00 | 0.00 | 77 | 1007.8 |
| 20260905022517 | 31 | 202 | 6.4 | 16.1 | 0.00 | 0.00 | 0.00 | 76 | 1007.7 |
| 20260905022018 | 31 | 156 | 8.0 | 14.5 | 0.00 | 0.00 | 0.00 | 76 | 1007.7 |
| 20260905021519 | 31 | 183 | 8.0 | 14.5 | 0.00 | 0.00 | 0.00 | 76 | 1007.8 |
| 20260905021007 | 31 | 158 | 6.4 | 14.5 | 0.00 | 0.00 | 0.00 | 76 | 1007.6 |
| 20260905020509 | 31 | 188 | 4.8 | 14.5 | 0.00 | 0.00 | 0.00 | 76 | 1007.7 |
| 20260905020022 | 31 | 238 | 6.4 | 12.9 | 0.00 | 0.00 | 0.00 | 77 | 1007.7 |
| 20260905015512 | 31 | 188 | 8.0 | 14.5 | 0.00 | 0.00 | 0.00 | 78 | 1007.6 |
| 20260905015019 | 31 | 194 | 6.4 | 14.5 | 0.00 | 0.00 | 0.00 | 78 | 1007.6 |
| 20260905014516 | 31 | 179 | 6.4 | 14.5 | 0.00 | 0.00 | 0.00 | 78 | 1007.5 |
| 20260905014017 | 31 | 261 | 6.4 | 14.5 | 0.00 | 0.00 | 0.00 | 78 | 1007.4 |
| 20260905013516 | 31 | 192 | 6.4 | 17.7 | 0.00 | 0.00 | 0.00 | 78 | 1007.3 |
| 20260905013024 | 32 | 224 | 6.4 | 17.7 | 0.00 | 0.00 | 0.00 | 77 | 1007.2 |
| 20260905012520 | 32 | 184 | 6.4 | 16.1 | 0.00 | 0.00 | 0.00 | 77 | 1007.2 |
| 20260905012005 | 32 | 180 | 8.0 | 14.5 | 0.00 | 0.00 | 0.00 | 77 | 1007.2 |
| 20260905011505 | 32 | 197 | 8.0 | 12.9 | 0.00 | 0.00 | 0.00 | 77 | 1007.2 |
| 20260905011009 | 32 | 242 | 8.0 | 12.9 | 0.00 | 0.00 | 0.00 | 77 | 1007.2 |
| 20260905010509 | 32 | 170 | 6.4 | 12.9 | 0.00 | 0.00 | 0.00 | 77 | 1007.1 |
| 20260905010021 | 32 | 171 | 6.4 | 11.3 | 0.00 | 0.00 | 0.00 | 77 | 1007.1 |
| 20260905005520 | 32 | 223 | 6.4 | 12.9 | 0.00 | 0.00 | 0.00 | 76 | 1007.1 |
| 20260905005024 | 32 | 206 | 6.4 | 11.3 | 0.00 | 0.00 | 0.00 | 75 | 1007.1 |
| 20260905004524 | 32 | 238 | 1.6 | 11.3 | 0.00 | 0.00 | 0.00 | 75 | 1007.0 |
| 20260905004007 | 32 | 229 | 4.8 | 11.3 | 0.00 | 0.00 | 0.00 | 75 | 1006.8 |
| 20260905003512 | 32 | 235 | 4.8 | 12.9 | 0.00 | 0.00 | 0.00 | 74 | 1006.6 |
| 20260905003016 | 32 | 231 | 4.8 | 8.0 | 0.00 | 0.00 | 0.00 | 73 | 1006.6 |
| 20260905002515 | 32 | 245 | 3.2 | 12.9 | 0.00 | 0.00 | 0.00 | 73 | 1006.6 |
| 20260905002018 | 32 | 254 | 3.2 | 12.9 | 0.00 | 0.00 | 0.00 | 72 | 1006.6 |
| 20260905001520 | 33 | 198 | 3.2 | 8.0 | 0.00 | 0.00 | 0.00 | 70 | 1006.6 |
| 20260905001020 | 33 | 264 | 3.2 | 9.7 | 0.00 | 0.00 | 0.00 | 70 | 1006.5 |
| 20260905000521 | 33 | 184 | 3.2 | 9.7 | 0.00 | 0.00 | 0.00 | 69 | 1006.5 |
| 20260905000011 | 33 | 259 | 4.8 | 14.5 | 0.00 | 0.00 | 0.00 | 68 | 1006.5 |
| 20260904235510 | 33 | 325 | 4.8 | 17.7 | 0.00 | 0.00 | 0.00 | 66 | 1006.5 |
| 20260904235016 | 33 | 180 | 8.0 | 17.7 | 0.00 | 0.00 | 0.00 | 64 | 1006.6 |
| 20260904234525 | 33 | 195 | 8.0 | 16.1 | 0.00 | 0.00 | 0.00 | 65 | 1006.4 |
| 20260904234016 | 33 | 222 | 6.4 | 16.1 | 0.00 | 0.00 | 0.00 | 65 | 1006.4 |
| 20260904233516 | 33 | 222 | 4.8 | 16.1 | 0.00 | 0.00 | 0.00 | 67 | 1006.5 |
| 20260904233016 | 33 | 237 | 6.4 | 16.1 | 0.00 | 0.00 | 0.00 | 66 | 1006.4 |
| 20260904232517 | 33 | 196 | 3.2 | 16.1 | 0.00 | 0.00 | 0.00 | 66 | 1006.4 |
| 20260904232024 | 33 | 227 | 6.4 | 12.9 | 0.00 | 0.00 | 0.00 | 66 | 1006.3 |
| 20260904231522 | 33 | 227 | 6.4 | 14.5 | 0.00 | 0.00 | 0.00 | 65 | 1006.3 |
| 20260904231009 | 33 | 271 | 6.4 | 17.7 | 0.00 | 0.00 | 0.00 | 64 | 1006.3 |
| 20260904230509 | 33 | 259 | 8.0 | 17.7 | 0.00 | 0.00 | 0.00 | 64 | 1006.3 |
| 20260904230012 | 33 | 213 | 6.4 | 20.9 | 0.00 | 0.00 | 0.00 | 66 | 1006.3 |
| 20260904225513 | 33 | 246 | 9.7 | 19.3 | 0.00 | 0.00 | 0.00 | 66 | 1006.4 |
| 20260904225019 | 33 | 212 | 11.3 | 19.3 | 0.00 | 0.00 | 0.00 | 65 | 1006.5 |
| 20260904224519 | 34 | 196 | 9.7 | 17.7 | 0.00 | 0.00 | 0.00 | 64 | 1006.4 |
| 20260904224017 | 33 | 224 | 8.0 | 16.1 | 0.00 | 0.00 | 0.00 | 64 | 1006.6 |
| 20260904223517 | 34 | 232 | 8.0 | 19.3 | 0.00 | 0.00 | 0.00 | 63 | 1006.5 |
| 20260904223020 | 33 | 182 | 6.4 | 19.3 | 0.00 | 0.00 | 0.00 | 64 | 1006.5 |
| 20260904222519 | 33 | 211 | 6.4 | 16.1 | 0.00 | 0.00 | 0.00 | 63 | 1006.5 |
| 20260904222008 | 34 | 259 | 9.7 | 17.7 | 0.00 | 0.00 | 0.00 | 64 | 1006.5 |
| 20260904221509 | 34 | 222 | 8.0 | 17.7 | 0.00 | 0.00 | 0.00 | 63 | 1006.3 |
| 20260904221011 | 34 | 200 | 6.4 | 16.1 | 0.00 | 0.00 | 0.00 | 62 | 1006.1 |
| 20260904220511 | 33 | 184 | 8.0 | 16.1 | 0.00 | 0.00 | 0.00 | 62 | 1006.0 |
| 20260904220026 | 33 | 205 | 9.7 | 16.1 | 0.00 | 0.00 | 0.00 | 63 | 1006.0 |
| 20260904215517 | 34 | 213 | 9.7 | 19.3 | 0.00 | 0.00 | 0.00 | 62 | 1006.1 |
| 20260904215023 | 34 | 264 | 8.0 | 19.3 | 0.00 | 0.00 | 0.00 | 62 | 1006.2 |
| 20260904214523 | 34 | 208 | 4.8 | 20.9 | 0.00 | 0.00 | 0.00 | 63 | 1006.2 |
| 20260904214007 | 34 | 226 | 11.3 | 20.9 | 0.00 | 0.00 | 0.00 | 64 | 1006.3 |
| 20260904213511 | 34 | 185 | 11.3 | 22.5 | 0.00 | 0.00 | 0.00 | 61 | 1006.3 |
| 20260904213014 | 34 | 200 | 12.9 | 22.5 | 0.00 | 0.00 | 0.00 | 60 | 1006.3 |
| 20260904212515 | 33 | 169 | 11.3 | 25.7 | 0.00 | 0.00 | 0.00 | 59 | 1006.3 |
| 20260904212019 | 33 | 249 | 8.0 | 14.5 | 0.00 | 0.00 | 0.00 | 63 | 1006.4 |
| 20260904211519 | 34 | 240 | 8.0 | 16.1 | 0.00 | 0.00 | 0.00 | 65 | 1006.4 |
| 20260904211006 | 34 | 223 | 8.0 | 16.1 | 0.00 | 0.00 | 0.00 | 65 | 1006.5 |
| 20260904210509 | 34 | 200 | 8.0 | 14.5 | 0.00 | 0.00 | 0.00 | 65 | 1006.4 |
| 20260904210015 | 33 | 360 | 4.8 | 14.5 | 0.00 | 0.00 | 0.00 | 66 | 1006.4 |
| 20260904205511 | 33 | 170 | 4.8 | 14.5 | 0.00 | 0.00 | 0.00 | 66 | 1006.4 |
| 20260904205015 | 33 | 294 | 6.4 | 14.5 | 0.00 | 0.00 | 0.00 | 65 | 1006.6 |
| 20260904204514 | 33 | 199 | 6.4 | 14.5 | 0.00 | 0.00 | 0.00 | 64 | 1006.7 |
| 20260904204022 | 34 | 174 | 8.0 | 14.5 | 0.00 | 0.00 | 0.00 | 65 | 1006.8 |
| 20260904203526 | 33 | 216 | 4.8 | 16.1 | 0.00 | 0.00 | 0.00 | 66 | 1006.9 |
| 20260904203007 | 33 | 248 | 6.4 | 16.1 | 0.00 | 0.00 | 0.00 | 65 | 1007.1 |
| 20260904202504 | 33 | 171 | 8.0 | 14.5 | 0.00 | 0.00 | 0.00 | 66 | 1007.1 |
| 20260904202009 | 33 | 360 | 8.0 | 16.1 | 0.00 | 0.00 | 0.00 | 66 | 1007.1 |
| 20260904201509 | 34 | 207 | 9.7 | 16.1 | 0.00 | 0.00 | 0.00 | 66 | 1007.0 |
| 20260904201021 | 33 | 186 | 8.0 | 14.5 | 0.00 | 0.00 | 0.00 | 66 | 1007.0 |
| 20260904200516 | 33 | 242 | 8.0 | 12.9 | 0.00 | 0.00 | 0.00 | 66 | 1007.2 |
| 20260904200020 | 33 | 165 | 6.4 | 14.5 | 0.00 | 0.00 | 0.00 | 68 | 1007.3 |
| 20260904195520 | 33 | 192 | 8.0 | 14.5 | 0.00 | 0.00 | 0.00 | 68 | 1007.4 |
| 20260904195020 | 33 | 279 | 3.2 | 14.5 | 0.00 | 0.00 | 0.00 | 68 | 1007.5 |
| 20260904194542 | 33 | 194 | 6.4 | 14.5 | 0.00 | 0.00 | 0.00 | 66 | 1007.6 |
| 20260904194032 | 33 | 244 | 4.8 | 11.3 | 0.00 | 0.00 | 0.00 | 68 | 1007.5 |
| 20260904193531 | 33 | 238 | 4.8 | 14.5 | 0.00 | 0.00 | 0.00 | 68 | 1007.4 |
| 20260904193006 | 33 | 250 | 4.8 | 14.5 | 0.00 | 0.00 | 0.00 | 68 | 1007.5 |
| 20260904192506 | 33 | 205 | 3.2 | 16.1 | 0.00 | 0.00 | 0.00 | 70 | 1007.5 |
| 20260904192009 | 33 | 200 | 8.0 | 17.7 | 0.00 | 0.00 | 0.00 | 70 | 1007.6 |
| 20260904191514 | 33 | 236 | 9.7 | 17.7 | 0.00 | 0.00 | 0.00 | 69 | 1007.7 |
| 20260904191019 | 33 | 246 | 6.4 | 14.5 | 0.00 | 0.00 | 0.00 | 68 | 1007.7 |
| 20260904190517 | 33 | 192 | 8.0 | 14.5 | 0.00 | 0.00 | 0.00 | 70 | 1007.8 |
| 20260904190019 | 33 | 220 | 8.0 | 17.7 | 0.00 | 0.00 | 0.00 | 70 | 1007.7 |
| 20260904185520 | 32 | 248 | 11.3 | 19.3 | 0.00 | 0.00 | 0.00 | 71 | 1007.8 |
| 20260904185020 | 32 | 192 | 9.7 | 19.3 | 0.00 | 0.00 | 0.00 | 71 | 1007.8 |